Location: Ciserano
(45.5833°N, 9.6000°E)
Time: 07:54:07
(UTC+00:00)

Cosmos 1295 Rocket - Pass Details

Date: 23 April 2021
Orbit: 944 x 993 km, 82.9° (Epoch: 13 May)

Event Time Altitude Azimuth Distance (km) Brightness Sun altitude
Rises 23:45:47 0° 349° (N) 3,685 8.5 -31.3°
Reaches altitude 10° 23:48:18 10° 347° (NNW) 2,739 7.6 -31.2°
Enters shadow 23:53:59 66° 302° (WNW) 1,069 4.6 -31.0°
